Time,TemperatureF,DewpointF,PressureIn,WindDirection,WindDirectionDegrees,WindSpeedMPH,WindSpeedGustMPH,Humidity,HourlyPrecipIn,Conditions,Clouds,dailyrainin,SoftwareType,DateUTC
2013-04-26 00:13:00,51.4,28.5,29.99,ESE,112,0.0,-999.0,41,-99.99,,,0.00,Acu-Link.com,2013-04-26 04:13:00,
2013-04-26 00:28:00,50.9,28.6,29.99,SSW,202,1.1,-999.0,42,-99.99,,,0.00,Acu-Link.com,2013-04-26 04:28:00,
2013-04-26 00:43:00,51.1,28.2,29.99,NNW,337,0.0,-999.0,41,-99.99,,,0.00,Acu-Link.com,2013-04-26 04:43:00,
2013-04-26 00:59:00,50.9,29.2,29.99,WSW,247,4.2,-999.0,43,-99.99,,,0.00,Acu-Link.com,2013-04-26 04:59:00,
2013-04-26 01:14:00,50.9,29.2,29.99,West,270,0.0,-999.0,43,-99.99,,,0.00,Acu-Link.com,2013-04-26 05:14:00,
2013-04-26 01:29:00,50.4,28.8,29.99,WSW,247,2.7,-999.0,43,-99.99,,,0.00,Acu-Link.com,2013-04-26 05:29:00,
2013-04-26 01:44:00,50.4,28.8,29.99,East,90,4.2,-999.0,43,-99.99,,,0.00,Acu-Link.com,2013-04-26 05:44:00,
2013-04-26 02:00:00,50.4,28.2,29.98,West,270,2.7,-999.0,42,-99.99,,,0.00,Acu-Link.com,2013-04-26 06:00:00,
2013-04-26 02:15:00,50.0,28.4,29.99,NW,315,1.1,-999.0,43,-99.99,,,0.00,Acu-Link.com,2013-04-26 06:15:00,
2013-04-26 02:30:00,49.8,28.2,29.98,SW,225,6.3,-999.0,43,-99.99,,,0.00,Acu-Link.com,2013-04-26 06:30:00,
2013-04-26 02:46:00,49.6,28.6,29.98,NNE,22,1.1,-999.0,44,-99.99,,,0.00,Acu-Link.com,2013-04-26 06:46:00,
2013-04-26 03:01:00,49.3,28.9,29.98,SW,225,1.1,-999.0,45,-99.99,,,0.00,Acu-Link.com,2013-04-26 07:01:00,
2013-04-26 03:16:00,48.9,28.5,29.98,WNW,292,1.1,-999.0,45,-99.99,,,0.00,Acu-Link.com,2013-04-26 07:16:00,
2013-04-26 03:31:00,48.6,28.8,29.98,South,180,1.1,-999.0,46,-99.99,,,0.00,Acu-Link.com,2013-04-26 07:31:00,
2013-04-26 03:47:00,48.7,28.9,29.98,South,180,2.2,-999.0,46,-99.99,,,0.00,Acu-Link.com,2013-04-26 07:47:00,
2013-04-26 04:02:00,48.4,29.6,29.98,East,90,0.0,-999.0,48,-99.99,,,0.00,Acu-Link.com,2013-04-26 08:02:00,
2013-04-26 04:17:00,48.2,28.9,29.98,SSW,202,4.7,-999.0,47,-99.99,,,0.00,Acu-Link.com,2013-04-26 08:17:00,
2013-04-26 04:33:00,48.0,28.7,29.99,NNE,22,1.7,-999.0,47,-99.99,,,0.00,Acu-Link.com,2013-04-26 08:33:00,
2013-04-26 04:48:00,47.7,29.0,29.99,ENE,67,0.0,-999.0,48,-99.99,,,0.00,Acu-Link.com,2013-04-26 08:48:00,
2013-04-26 05:03:00,47.1,29.4,29.99,ENE,67,0.0,-999.0,50,-99.99,,,0.00,Acu-Link.com,2013-04-26 09:03:00,
2013-04-26 05:18:00,46.8,28.7,29.99,ESE,112,1.1,-999.0,49,-99.99,,,0.00,Acu-Link.com,2013-04-26 09:18:00,
2013-04-26 05:34:00,46.4,29.3,30.00,WSW,247,1.7,-999.0,51,-99.99,,,0.00,Acu-Link.com,2013-04-26 09:34:00,
2013-04-26 05:49:00,46.0,28.9,30.00,East,90,3.7,-999.0,51,-99.99,,,0.00,Acu-Link.com,2013-04-26 09:49:00,
2013-04-26 06:04:00,46.0,28.9,30.00,East,90,2.2,-999.0,51,-99.99,,,0.00,Acu-Link.com,2013-04-26 10:04:00,
2013-04-26 06:19:00,46.0,28.4,30.01,East,90,4.7,-999.0,50,-99.99,,,0.00,Acu-Link.com,2013-04-26 10:19:00,
2013-04-26 06:34:00,46.0,27.9,30.02,SSW,202,3.7,-999.0,49,-99.99,,,0.00,Acu-Link.com,2013-04-26 10:34:00,
2013-04-26 06:50:00,46.0,28.4,30.02,South,180,1.1,-999.0,50,-99.99,,,0.00,Acu-Link.com,2013-04-26 10:50:00,
2013-04-26 07:05:00,46.0,27.9,30.03,ESE,112,2.2,-999.0,49,-99.99,,,0.00,Acu-Link.com,2013-04-26 11:05:00,
2013-04-26 07:20:00,46.6,29.0,30.04,ENE,67,1.1,-999.0,50,-99.99,,,0.00,Acu-Link.com,2013-04-26 11:20:00,
2013-04-26 07:35:00,47.3,29.1,30.05,ENE,67,2.2,-999.0,49,-99.99,,,0.00,Acu-Link.com,2013-04-26 11:35:00,
2013-04-26 07:51:00,48.4,29.1,30.06,West,270,2.2,-999.0,47,-99.99,,,0.00,Acu-Link.com,2013-04-26 11:51:00,
2013-04-26 08:06:00,48.7,29.9,30.06,NE,45,1.7,-999.0,48,-99.99,,,0.00,Acu-Link.com,2013-04-26 12:06:00,
2013-04-26 08:21:00,48.9,30.1,30.07,East,90,3.7,-999.0,48,-99.99,,,0.00,Acu-Link.com,2013-04-26 12:21:00,
2013-04-26 08:36:00,49.3,29.4,30.07,East,90,1.7,-999.0,46,-99.99,,,0.00,Acu-Link.com,2013-04-26 12:36:00,
2013-04-26 08:52:00,50.5,30.5,30.08,East,90,4.2,-999.0,46,-99.99,,,0.00,Acu-Link.com,2013-04-26 12:52:00,
2013-04-26 09:07:00,51.4,29.7,30.09,ESE,112,2.7,-999.0,43,-99.99,,,0.00,Acu-Link.com,2013-04-26 13:07:00,
2013-04-26 09:22:00,53.1,31.8,30.09,ESE,112,3.2,-999.0,44,-99.99,,,0.00,Acu-Link.com,2013-04-26 13:22:00,
2013-04-26 09:37:00,54.0,30.8,30.09,East,90,4.2,-999.0,41,-99.99,,,0.00,Acu-Link.com,2013-04-26 13:37:00,
2013-04-26 09:52:00,54.9,31.0,30.10,NE,45,0.0,-999.0,40,-99.99,,,0.00,Acu-Link.com,2013-04-26 13:52:00,
2013-04-26 10:08:00,55.6,30.4,30.10,South,180,2.7,-999.0,38,-99.99,,,0.00,Acu-Link.com,2013-04-26 14:08:00,
2013-04-26 10:23:00,57.0,31.0,30.10,NNE,22,2.7,-999.0,37,-99.99,,,0.00,Acu-Link.com,2013-04-26 14:23:00,
2013-04-26 10:38:00,58.6,31.7,30.10,East,90,3.2,-999.0,36,-99.99,,,0.00,Acu-Link.com,2013-04-26 14:38:00,
2013-04-26 10:53:00,58.1,31.3,30.10,WSW,247,2.2,-999.0,36,-99.99,,,0.00,Acu-Link.com,2013-04-26 14:53:00,
2013-04-26 11:09:00,59.4,31.7,30.10,NNE,22,2.2,-999.0,35,-99.99,,,0.00,Acu-Link.com,2013-04-26 15:09:00,
2013-04-26 11:24:00,59.7,34.1,30.11,ENE,67,1.1,-999.0,38,-99.99,,,0.00,Acu-Link.com,2013-04-26 15:24:00,
2013-04-26 11:39:00,60.6,32.8,30.11,NNW,337,1.1,-999.0,35,-99.99,,,0.00,Acu-Link.com,2013-04-26 15:39:00,
2013-04-26 11:54:00,60.6,34.9,30.10,ENE,67,5.8,-999.0,38,-99.99,,,0.00,Acu-Link.com,2013-04-26 15:54:00,
2013-04-26 12:10:00,63.0,34.9,30.10,South,180,0.0,-999.0,35,-99.99,,,0.00,Acu-Link.com,2013-04-26 16:10:00,
2013-04-26 12:25:00,64.8,36.5,30.10,NE,45,1.7,-999.0,35,-99.99,,,0.00,Acu-Link.com,2013-04-26 16:25:00,
2013-04-26 12:40:00,64.6,33.3,30.09,South,180,2.7,-999.0,31,-99.99,,,0.00,Acu-Link.com,2013-04-26 16:40:00,
2013-04-26 12:55:00,64.6,33.3,30.09,ESE,112,0.0,-999.0,31,-99.99,,,0.00,Acu-Link.com,2013-04-26 16:55:00,
2013-04-26 13:10:00,63.7,31.7,30.08,WSW,247,1.1,-999.0,30,-99.99,,,0.00,Acu-Link.com,2013-04-26 17:10:00,
2013-04-26 13:25:00,66.9,35.3,30.08,South,180,3.2,-999.0,31,-99.99,,,0.00,Acu-Link.com,2013-04-26 17:25:00,
2013-04-26 13:41:00,65.8,34.3,30.08,ENE,67,1.7,-999.0,31,-99.99,,,0.00,Acu-Link.com,2013-04-26 17:41:00,
2013-04-26 13:56:00,66.4,34.8,30.07,NNE,22,3.2,-999.0,31,-99.99,,,0.00,Acu-Link.com,2013-04-26 17:56:00,
2013-04-26 14:11:00,65.1,34.5,30.08,SW,225,1.7,-999.0,32,-99.99,,,0.00,Acu-Link.com,2013-04-26 18:11:00,
2013-04-26 14:27:00,66.2,33.9,30.07,SW,225,3.7,-999.0,30,-99.99,,,0.00,Acu-Link.com,2013-04-26 18:27:00,
2013-04-26 14:42:00,65.7,35.0,30.07,WSW,247,1.7,-999.0,32,-99.99,,,0.00,Acu-Link.com,2013-04-26 18:42:00,
2013-04-26 14:57:00,66.4,34.0,30.06,South,180,4.2,-999.0,30,-99.99,,,0.00,Acu-Link.com,2013-04-26 18:57:00,
2013-04-26 15:13:00,66.9,34.5,30.05,South,180,4.2,-999.0,30,-99.99,,,0.00,Acu-Link.com,2013-04-26 19:13:00,
2013-04-26 15:28:00,65.3,33.1,30.04,SSW,202,0.0,-999.0,30,-99.99,,,0.00,Acu-Link.com,2013-04-26 19:28:00,
2013-04-26 15:43:00,68.0,36.2,30.03,SSW,202,3.2,-999.0,31,-99.99,,,0.00,Acu-Link.com,2013-04-26 19:43:00,
2013-04-26 15:58:00,66.6,35.0,30.03,SSE,157,4.2,-999.0,31,-99.99,,,0.00,Acu-Link.com,2013-04-26 19:58:00,
2013-04-26 16:14:00,64.8,35.0,30.02,SW,225,3.2,-999.0,33,-99.99,,,0.00,Acu-Link.com,2013-04-26 20:14:00,
2013-04-26 16:29:00,65.5,36.4,30.01,SSW,202,2.7,-999.0,34,-99.99,,,0.00,Acu-Link.com,2013-04-26 20:29:00,
2013-04-26 16:44:00,64.8,34.2,30.01,SW,225,3.7,-999.0,32,-99.99,,,0.00,Acu-Link.com,2013-04-26 20:44:00,
2013-04-26 16:59:00,64.8,35.8,30.01,SSW,202,2.7,-999.0,34,-99.99,,,0.00,Acu-Link.com,2013-04-26 20:59:00,
2013-04-26 17:15:00,64.8,34.2,30.00,North,0,1.1,-999.0,32,-99.99,,,0.00,Acu-Link.com,2013-04-26 21:15:00,
2013-04-26 17:30:00,64.8,35.8,30.00,East,90,0.0,-999.0,34,-99.99,,,0.00,Acu-Link.com,2013-04-26 21:30:00,
2013-04-26 17:45:00,64.6,37.0,30.00,South,180,3.2,-999.0,36,-99.99,,,0.00,Acu-Link.com,2013-04-26 21:45:00,
2013-04-26 18:01:00,63.3,36.6,30.01,SE,135,0.0,-999.0,37,-99.99,,,0.00,Acu-Link.com,2013-04-26 22:01:00,
2013-04-26 18:16:00,63.9,36.4,30.00,SE,135,0.0,-999.0,36,-99.99,,,0.00,Acu-Link.com,2013-04-26 22:16:00,
2013-04-26 18:31:00,63.5,36.8,30.01,NE,45,1.1,-999.0,37,-99.99,,,0.00,Acu-Link.com,2013-04-26 22:31:00,
2013-04-26 18:46:00,63.1,36.4,30.01,ENE,67,0.0,-999.0,37,-99.99,,,0.00,Acu-Link.com,2013-04-26 22:46:00,
2013-04-26 19:02:00,63.0,36.3,30.02,West,270,0.0,-999.0,37,-99.99,,,0.00,Acu-Link.com,2013-04-26 23:02:00,
2013-04-26 19:17:00,62.4,38.4,30.03,NE,45,0.0,-999.0,41,-99.99,,,0.00,Acu-Link.com,2013-04-26 23:17:00,
2013-04-26 19:32:00,61.5,38.2,30.03,ENE,67,0.0,-999.0,42,-99.99,,,0.00,Acu-Link.com,2013-04-26 23:32:00,
2013-04-26 19:48:00,61.3,37.4,30.03,ESE,112,0.0,-999.0,41,-99.99,,,0.00,Acu-Link.com,2013-04-26 23:48:00,
2013-04-26 20:18:00,59.5,36.4,30.04,East,90,0.0,-999.0,42,-99.99,,,0.00,Acu-Link.com,2013-04-27 00:18:00,
2013-04-26 20:33:00,59.2,37.3,30.05,WSW,247,0.0,-999.0,44,-99.99,,,0.00,Acu-Link.com,2013-04-27 00:33:00,
2013-04-26 20:49:00,58.6,37.9,30.04,East,90,0.0,-999.0,46,-99.99,,,0.00,Acu-Link.com,2013-04-27 00:49:00,
2013-04-26 21:04:00,57.9,37.2,30.04,East,90,0.0,-999.0,46,-99.99,,,0.00,Acu-Link.com,2013-04-27 01:04:00,
2013-04-26 21:19:00,57.2,37.2,30.04,West,270,0.0,-999.0,47,-99.99,,,0.00,Acu-Link.com,2013-04-27 01:19:00,
2013-04-26 21:34:00,56.5,38.6,30.04,NE,45,0.0,-999.0,51,-99.99,,,0.00,Acu-Link.com,2013-04-27 01:34:00,
2013-04-26 21:50:00,56.1,38.7,30.03,East,90,0.0,-999.0,52,-99.99,,,0.00,Acu-Link.com,2013-04-27 01:50:00,
2013-04-26 22:05:00,55.2,39.3,30.03,NE,45,0.0,-999.0,55,-99.99,,,0.00,Acu-Link.com,2013-04-27 02:05:00,
2013-04-26 22:20:00,55.6,38.3,30.01,NE,45,0.0,-999.0,52,-99.99,,,0.00,Acu-Link.com,2013-04-27 02:20:00,
2013-04-26 22:35:00,55.4,40.9,30.02,NNE,22,0.0,-999.0,58,-99.99,,,0.00,Acu-Link.com,2013-04-27 02:35:00,
2013-04-26 22:51:00,54.7,40.7,30.02,West,270,0.0,-999.0,59,-99.99,,,0.00,Acu-Link.com,2013-04-27 02:51:00,
2013-04-26 23:06:00,54.7,37.4,30.02,ESE,112,0.0,-999.0,52,-99.99,,,0.00,Acu-Link.com,2013-04-27 03:06:00,
2013-04-26 23:21:00,55.6,36.2,30.01,ESE,112,1.7,-999.0,48,-99.99,,,0.00,Acu-Link.com,2013-04-27 03:21:00,
2013-04-26 23:36:00,55.4,43.0,30.02,NE,45,0.0,-999.0,63,-99.99,,,0.00,Acu-Link.com,2013-04-27 03:36:00,
2013-04-26 23:52:00,55.6,41.1,30.03,SSW,202,0.0,-999.0,58,-99.99,,,0.00,Acu-Link.com,2013-04-27 03:52:00,